Regional Weather Roundup
Issued by NWS

Home | Current Version | Previous Version | Text Only | Print | Product List | Glossary Off
Versions: 1 2 3 4 5 6 7 8 9 10 11 12 13 14 15 16 17 18 19 20 21 22 23 24 25 26 27 28 29 30 31 32 33 34 35 36 37 38 39 40 41 42 43 44 45 46 47 48 49 50

000
ASUS43 KBIS 260210
RWRND

NORTH DAKOTA REGIONAL WEATHER ROUNDUP
NATIONAL WEATHER SERVICE BISMARCK ND
800 PM CST TUE NOV 25 2014

NOTE: "FAIR" INDICATES FEW OR NO CLOUDS BELOW 12,000 FEET WITH NO
SIGNIFICANT WEATHER AND/OR OBSTRUCTIONS TO VISIBILITY.


NDZ001>003-009>011-017-260300-
NORTHWEST NORTH DAKOTA

CITY           SKY/WX    TMP DP  RH WIND       PRES   REMARKS
WILLISTON      CLOUDY    20  15  81 N14       30.07R WCI   7
MINOT          LGT SNOW  17  13  84 N12       30.02R FOG     WCI   4
MINOT AFB      CLOUDY    13  10  90 N16       30.03R WCI  -3
$$

NDZ018>021-031>035-040>046-260300-
SOUTHWEST NORTH DAKOTA

CITY           SKY/WX    TMP DP  RH WIND       PRES   REMARKS
BISMARCK       CLOUDY    32  31  96 N17G25    29.78R
DICKINSON      CLOUDY    26  23  88 N23G31    29.89R WCI  11
GARRISON         N/A     20  16  84 NE18G28   29.94R WCI   5
HETTINGER ARPT CLOUDY    32  26  78 NW29G36   29.84R WCI  18
$$

NDZ004>008-012>016-024-026-027-054-260300-
NORTHEAST NORTH DAKOTA

CITY           SKY/WX    TMP DP  RH WIND       PRES   REMARKS
GRAND FORKS    LGT SNOW  18  14  84 N14       30.03R FOG     WCI   4
GRND FRKS AFB  LGT SNOW  16  14  93 N16G22    30.04R FOG     WCI   0
DEVILS LAKE    CLOUDY    14   3  62 NE17      29.99R WCI  -3
$$

NDZ022-023-025-028>030-036>039-047>053-260300-
SOUTHEAST NORTH DAKOTA

CITY           SKY/WX    TMP DP  RH WIND       PRES   REMARKS
FARGO          CLOUDY    25  17  72 NE8       29.95R WCI  16
JAMESTOWN      SNOW      23  21  92 E16       29.87R VSB 1/2 WCI  10
$$



USA.gov is the U.S. government's official web portal to all federal, state and local government web resources and services.